CW8721 Weather Reports


Display with metric or nautical units.
time (UTC)temp
F
wind
direction
speed
MPH
gust
MPH
rain 1hr
in
rain 24hr
in
rain mn
in
humidity
%
barometer
mb
20260905002057 88 179 11.0 23.0 0.00 0.00 0.00 17 999.6
20260905001606 88 181 7.0 20.0 0.00 0.00 0.00 18 999.6
20260905001056 88 176 9.0 20.0 0.00 0.00 0.00 17 999.8
20260905000556 88 188 8.0 17.0 0.00 0.00 0.00 17 999.6
20260905000112 88 189 7.0 18.0 0.00 0.00 0.00 17 999.5
20260904235555 88 180 7.0 18.0 0.00 0.00 0.00 17 999.7
20260904235054 88 166 7.0 18.0 0.00 0.00 0.00 17 999.7
20260904234555 88 159 7.0 17.0 0.00 0.00 0.00 17 999.7
20260904234054 88 187 8.0 13.0 0.00 0.00 0.00 16 999.7
20260904233553 88 195 9.0 25.0 0.00 0.00 0.00 16 999.7
20260904233054 88 172 8.0 25.0 0.00 0.00 0.00 16 999.8
20260904232553 88 171 8.0 18.0 0.00 0.00 0.00 16 999.7
20260904232056 88 184 10.0 18.0 0.00 0.00 0.00 16 999.8
20260904231557 88 158 7.0 21.0 0.00 0.00 0.00 15 999.8
20260904231052 88 192 10.0 21.0 0.00 0.00 0.00 15 999.9
20260904230552 88 188 12.0 21.0 0.00 0.00 0.00 15 999.9
20260904230051 88 186 12.0 21.0 0.00 0.00 0.00 16 999.9
20260904225551 88 189 10.0 20.0 0.00 0.00 0.00 15 999.9
20260904225050 88 169 9.0 20.0 0.00 0.00 0.00 15 1000.0
20260904224550 88 163 9.0 14.0 0.00 0.00 0.00 15 1000.0
20260904224049 88 194 9.0 19.0 0.00 0.00 0.00 15 1000.0
20260904223550 89 184 9.0 17.0 0.00 0.00 0.00 16 1000.1
20260904223050 88 181 7.0 21.0 0.00 0.00 0.00 16 1000.2
20260904222548 88 178 10.0 21.0 0.00 0.00 0.00 15 1000.2
20260904222049 88 154 11.0 19.0 0.00 0.00 0.00 15 1000.3
20260904221547 89 179 8.0 24.0 0.00 0.00 0.00 16 1000.4
20260904221050 88 194 11.0 24.0 0.00 0.00 0.00 15 1000.4
20260904220548 89 183 8.0 19.0 0.00 0.00 0.00 15 1000.5
20260904220108 89 184 12.0 18.0 0.00 0.00 0.00 15 1000.6
20260904215546 89 186 9.0 18.0 0.00 0.00 0.00 15 1000.7
20260904215046 89 187 9.0 17.0 0.00 0.00 0.00 15 1000.7
20260904214546 89 180 8.0 17.0 0.00 0.00 0.00 14 1000.7
20260904214045 89 137 5.0 21.0 0.00 0.00 0.00 16 1000.8
20260904213544 88 203 10.0 28.0 0.00 0.00 0.00 15 1000.8
20260904213044 88 172 11.0 28.0 0.00 0.00 0.00 15 1000.8
20260904212544 88 176 11.0 18.0 0.00 0.00 0.00 15 1000.9
20260904212047 88 166 11.0 23.0 0.00 0.00 0.00 15 1001.1
20260904211552 88 161 10.0 17.0 0.00 0.00 0.00 15 1001.1
20260904211043 88 189 8.0 20.0 0.00 0.00 0.00 15 1001.2
20260904210542 88 165 10.0 20.0 0.00 0.00 0.00 16 1001.2
20260904210047 88 147 10.0 20.0 0.00 0.00 0.00 15 1001.3
20260904205542 87 184 9.0 21.0 0.00 0.00 0.00 15 1001.3
20260904205040 87 170 7.0 21.0 0.00 0.00 0.00 16 1001.2
20260904204546 87 184 9.0 21.0 0.00 0.00 0.00 15 1001.4
20260904204044 87 188 10.0 21.0 0.00 0.00 0.00 15 1001.3
20260904203539 87 190 12.0 21.0 0.00 0.00 0.00 15 1001.5
20260904203043 86 193 8.0 19.0 0.00 0.00 0.00 16 1001.6
20260904202537 86 177 9.0 22.0 0.00 0.00 0.00 16 1001.5
20260904202037 86 180 10.0 19.0 0.00 0.00 0.00 16 1001.5
20260904201537 86 172 10.0 16.0 0.00 0.00 0.00 16 1001.6
20260904201037 86 167 7.0 15.0 0.00 0.00 0.00 18 1001.7
20260904200537 86 189 10.0 17.0 0.00 0.00 0.00 17 1001.7
20260904200039 86 201 5.0 17.0 0.00 0.00 0.00 18 1001.8
20260904195535 85 207 7.0 17.0 0.00 0.00 0.00 17 1001.8
20260904195033 85 158 7.0 16.0 0.00 0.00 0.00 18 1001.9
20260904194548 85 183 9.0 18.0 0.00 0.00 0.00 17 1001.9
20260904194037 85 162 9.0 21.0 0.00 0.00 0.00 18 1002.0
20260904193536 85 160 11.0 21.0 0.00 0.00 0.00 17 1002.1
20260904193036 84 170 7.0 16.0 0.00 0.00 0.00 18 1002.1
20260904192533 84 238 9.0 16.0 0.00 0.00 0.00 18 1002.1
20260904192034 84 196 7.0 19.0 0.00 0.00 0.00 18 1002.1
20260904191540 84 152 11.0 19.0 0.00 0.00 0.00 18 1002.1
20260904191033 84 178 7.0 25.0 0.00 0.00 0.00 18 1002.1
20260904190529 83 163 12.0 25.0 0.00 0.00 0.00 18 1002.2
20260904190032 83 175 13.0 23.0 0.00 0.00 0.00 18 1002.2
20260904185528 83 200 6.0 26.0 0.00 0.00 0.00 20 1002.3
20260904185028 83 163 10.0 26.0 0.00 0.00 0.00 20 1002.3
20260904184526 83 179 8.0 18.0 0.00 0.00 0.00 19 1002.3
20260904184026 82 175 9.0 18.0 0.00 0.00 0.00 22 1002.4
20260904183525 83 178 9.0 18.0 0.00 0.00 0.00 22 1002.6
20260904183024 82 178 7.0 20.0 0.00 0.00 0.00 23 1002.6
20260904182528 82 136 9.0 20.0 0.00 0.00 0.00 24 1002.7
20260904182022 81 127 8.0 25.0 0.00 0.00 0.00 25 1002.8
20260904181522 81 177 11.0 25.0 0.00 0.00 0.00 24 1002.7
20260904181021 81 127 8.0 16.0 0.00 0.00 0.00 24 1002.8
20260904180521 81 138 8.0 18.0 0.00 0.00 0.00 24 1002.8
20260904180019 81 159 8.0 24.0 0.00 0.00 0.00 25 1003.0
20260904175518 81 184 10.0 24.0 0.00 0.00 0.00 25 1002.8
20260904175017 80 156 6.0 19.0 0.00 0.00 0.00 25 1002.9
20260904174535 80 130 11.0 20.0 0.00 0.00 0.00 25 1002.9
20260904174017 80 177 10.0 22.0 0.00 0.00 0.00 25 1003.0
20260904173515 80 170 9.0 23.0 0.00 0.00 0.00 27 1003.0
20260904173014 80 169 9.0 23.0 0.00 0.00 0.00 25 1003.1
20260904172513 80 161 6.0 21.0 0.00 0.00 0.00 25 1003.2
20260904172012 80 186 6.0 19.0 0.00 0.00 0.00 26 1003.1
20260904171510 79 186 11.0 19.0 0.00 0.00 0.00 26 1003.2
20260904171009 79 134 8.0 18.0 0.00 0.00 0.00 25 1003.2
20260904170512 79 150 8.0 18.0 0.00 0.00 0.00 24 1003.2
20260904170107 79 119 6.0 22.0 0.00 0.00 0.00 26 1003.3
20260904165505 79 156 11.0 22.0 0.00 0.00 0.00 24 1003.2
20260904165004 79 144 9.0 21.0 0.00 0.00 0.00 24 1003.3
20260904164503 79 175 6.0 18.0 0.00 0.00 0.00 26 1003.2
20260904164005 78 134 7.0 20.0 0.00 0.00 0.00 25 1003.3
20260904163501 78 144 10.0 20.0 0.00 0.00 0.00 25 1003.5
20260904163108 78 150 7.0 18.0 0.00 0.00 0.00 25 1003.5
20260904162558 78 152 7.0 14.0 0.00 0.00 0.00 25 1003.5
20260904162056 77 163 8.0 14.0 0.00 0.00 0.00 25 1003.5
20260904161556 77 165 6.0 19.0 0.00 0.00 0.00 25 1003.5
20260904161057 77 111 8.0 19.0 0.00 0.00 0.00 25 1003.7
20260904160553 77 144 10.0 17.0 0.00 0.00 0.00 25 1003.5
20260904160055 77 190 7.0 14.0 0.00 0.00 0.00 24 1003.5
20260904155551 77 174 6.0 19.0 0.00 0.00 0.00 27 1003.5
20260904155052 76 132 10.0 20.0 0.00 0.00 0.00 26 1003.5
20260904154547 76 178 12.0 17.0 0.00 0.00 0.00 25 1003.4
20260904154045 76 163 7.0 17.0 0.00 0.00 0.00 26 1003.5
20260904153543 76 186 9.0 17.0 0.00 0.00 0.00 26 1003.4
20260904153047 75 152 7.0 17.0 0.00 0.00 0.00 26 1003.5
20260904152541 75 178 9.0 13.0 0.00 0.00 0.00 26 1003.5
20260904152041 75 183 7.0 15.0 0.00 0.00 0.00 26 1003.6
20260904151538 75 161 8.0 14.0 0.00 0.00 0.00 26 1003.6
20260904151040 74 162 4.0 19.0 0.00 0.00 0.00 25 1003.6
20260904150537 74 162 8.0 19.0 0.00 0.00 0.00 24 1003.6
20260904150044 74 183 7.0 18.0 0.00 0.00 0.00 24 1003.6
20260904145536 74 175 7.0 18.0 0.00 0.00 0.00 24 1003.6
20260904145036 74 184 6.0 16.0 0.00 0.00 0.00 25 1003.6
20260904144537 73 169 8.0 18.0 0.00 0.00 0.00 25 1003.5
20260904144034 73 170 8.0 15.0 0.00 0.00 0.00 25 1003.5
20260904143532 73 184 7.0 16.0 0.00 0.00 0.00 24 1003.5
20260904143035 73 152 7.0 16.0 0.00 0.00 0.00 24 1003.6
20260904142531 72 178 8.0 15.0 0.00 0.00 0.00 24 1003.5
20260904142033 72 180 7.0 15.0 0.00 0.00 0.00 24 1003.4
20260904141531 72 171 8.0 16.0 0.00 0.00 0.00 24 1003.4
20260904141037 72 214 7.0 15.0 0.00 0.00 0.00 24 1003.4
20260904140529 72 185 6.0 15.0 0.00 0.00 0.00 24 1003.4
20260904140036 72 189 7.0 15.0 0.00 0.00 0.00 23 1003.4
20260904135529 71 171 6.0 17.0 0.00 0.00 0.00 23 1003.3
20260904135028 71 185 6.0 12.0 0.00 0.00 0.00 23 1003.3
20260904134527 71 181 7.0 16.0 0.00 0.00 0.00 22 1003.2
20260904134026 71 165 8.0 16.0 0.00 0.00 0.00 22 1003.2
20260904133525 71 173 8.0 15.0 0.00 0.00 0.00 22 1003.1
20260904133024 71 163 8.0 14.0 0.00 0.00 0.00 22 1003.1
20260904132525 71 179 7.0 14.0 0.00 0.00 0.00 22 1003.0
20260904132023 70 169 7.0 14.0 0.00 0.00 0.00 21 1002.9
20260904131521 70 175 6.0 14.0 0.00 0.00 0.00 21 1002.9
20260904131021 70 178 8.0 14.0 0.00 0.00 0.00 21 1002.8
20260904130523 71 164 8.0 14.0 0.00 0.00 0.00 20 1002.8
20260904130019 71 186 9.0 14.0 0.00 0.00 0.00 20 1002.7
20260904125518 71 181 7.0 15.0 0.00 0.00 0.00 20 1002.7
20260904125022 71 177 8.0 15.0 0.00 0.00 0.00 19 1002.7
20260904124517 71 153 7.0 15.0 0.00 0.00 0.00 20 1002.7
20260904124015 71 190 7.0 15.0 0.00 0.00 0.00 20 1002.6
20260904123517 71 171 7.0 17.0 0.00 0.00 0.00 20 1002.5
20260904123013 72 169 8.0 17.0 0.00 0.00 0.00 19 1002.5
20260904122513 72 182 7.0 15.0 0.00 0.00 0.00 19 1002.4
20260904122013 72 173 7.0 15.0 0.00 0.00 0.00 19 1002.2
20260904121512 72 149 6.0 19.0 0.00 0.00 0.00 19 1002.3
20260904121014 72 146 8.0 19.0 0.00 0.00 0.00 19 1002.2
20260904120511 72 167 9.0 17.0 0.00 0.00 0.00 19 1002.3
20260904120011 72 182 9.0 19.0 0.00 0.00 0.00 18 1002.2
20260904115509 72 196 8.0 16.0 0.00 0.00 0.00 19 1002.2
20260904115009 72 182 8.0 21.0 0.00 0.00 0.00 19 1002.2
20260904114509 72 191 7.0 21.0 0.00 0.00 0.00 18 1002.2
20260904114012 72 153 9.0 16.0 0.00 0.00 0.00 18 1002.0
20260904113509 72 143 8.0 14.0 0.00 0.00 0.00 17 1002.0
20260904113016 72 163 8.0 16.0 0.00 0.00 0.00 17 1002.0
20260904112508 72 188 7.0 16.0 0.00 0.00 0.00 17 1002.0
20260904112008 72 188 9.0 20.0 0.00 0.00 0.00 16 1002.1
20260904111507 72 191 7.0 15.0 0.00 0.00 0.00 17 1002.1
20260904111010 73 170 9.0 16.0 0.00 0.00 0.00 16 1002.1
20260904110607 72 168 10.0 16.0 0.00 0.00 0.00 16 1002.0
20260904110019 73 140 8.0 17.0 0.00 0.00 0.00 16 1002.0
20260904105504 73 133 11.0 20.0 0.00 0.00 0.00 15 1001.8
20260904105004 73 126 6.0 15.0 0.00 0.00 0.00 17 1001.9
20260904104503 73 122 7.0 15.0 0.00 0.00 0.00 17 1001.8
20260904104003 73 183 8.0 15.0 0.00 0.00 0.00 17 1001.8
20260904103502 73 155 7.0 17.0 0.00 0.00 0.00 17 1001.8
20260904103101 73 136 9.0 16.0 0.00 0.00 0.00 17 1001.9
20260904102601 73 178 6.0 15.0 0.00 0.00 0.00 18 1001.9
20260904102100 73 132 7.0 15.0 0.00 0.00 0.00 18 1001.8
20260904101609 73 182 7.0 14.0 0.00 0.00 0.00 18 1001.8
20260904101059 73 188 8.0 16.0 0.00 0.00 0.00 18 1001.8
20260904100558 73 169 7.0 16.0 0.00 0.00 0.00 18 1001.8
20260904100101 73 173 8.0 13.0 0.00 0.00 0.00 18 1001.8
20260904095556 73 174 8.0 12.0 0.00 0.00 0.00 18 1001.8
20260904095057 73 143 6.0 12.0 0.00 0.00 0.00 18 1001.7
20260904094555 73 134 7.0 12.0 0.00 0.00 0.00 17 1001.7
20260904094054 73 172 6.0 15.0 0.00 0.00 0.00 17 1001.6
20260904093555 73 190 5.0 14.0 0.00 0.00 0.00 17 1001.6
20260904093113 73 125 8.0 18.0 0.00 0.00 0.00 17 1001.6
20260904092557 73 142 6.0 18.0 0.00 0.00 0.00 17 1001.6
20260904092057 73 165 6.0 13.0 0.00 0.00 0.00 17 1001.6
20260904091555 73 142 6.0 14.0 0.00 0.00 0.00 18 1001.6
20260904091054 73 164 5.0 15.0 0.00 0.00 0.00 19 1001.6
20260904090555 72 126 5.0 15.0 0.00 0.00 0.00 19 1001.6
20260904090054 72 169 4.0 9.0 0.00 0.00 0.00 20 1001.6
20260904085556 72 152 3.0 12.0 0.00 0.00 0.00 20 1001.6
20260904085052 72 162 3.0 12.0 0.00 0.00 0.00 20 1001.5
20260904084551 72 142 2.0 11.0 0.00 0.00 0.00 19 1001.7
20260904084053 72 164 2.0 11.0 0.00 0.00 0.00 19 1001.6
20260904083549 73 171 2.0 9.0 0.00 0.00 0.00 18 1001.5
20260904083052 74 161 2.0 11.0 0.00 0.00 0.00 18 1001.6
20260904082549 74 130 4.0 13.0 0.00 0.00 0.00 16 1001.5
20260904082048 75 183 6.0 15.0 0.00 0.00 0.00 16 1001.4
20260904081548 74 161 3.0 15.0 0.00 0.00 0.00 17 1001.4
20260904081052 74 157 6.0 15.0 0.00 0.00 0.00 17 1001.4
20260904080547 74 144 5.0 14.0 0.00 0.00 0.00 17 1001.4
20260904080046 73 192 4.0 14.0 0.00 0.00 0.00 18 1001.2
20260904075545 73 182 5.0 16.0 0.00 0.00 0.00 18 1001.2
20260904075046 73 157 5.0 16.0 0.00 0.00 0.00 18 1001.1
20260904074545 72 133 2.0 10.0 0.00 0.00 0.00 19 1001.2
20260904074042 73 116 3.0 10.0 0.00 0.00 0.00 18 1001.1
20260904073542 73 167 3.0 12.0 0.00 0.00 0.00 19 1001.2
20260904073041 73 185 5.0 12.0 0.00 0.00 0.00 20 1001.1
20260904072540 74 136 4.0 11.0 0.00 0.00 0.00 20 1001.1
20260904072040 74 178 3.0 13.0 0.00 0.00 0.00 19 1001.0
20260904071539 74 140 4.0 13.0 0.00 0.00 0.00 19 1001.0
20260904071038 73 143 5.0 14.0 0.00 0.00 0.00 20 1000.9
20260904070537 73 154 5.0 13.0 0.00 0.00 0.00 22 1000.9
20260904070045 73 163 3.0 10.0 0.00 0.00 0.00 21 1000.9
20260904065539 74 149 4.0 10.0 0.00 0.00 0.00 21 1000.8
20260904065039 74 158 4.0 13.0 0.00 0.00 0.00 22 1000.7
20260904064543 74 146 4.0 13.0 0.00 0.00 0.00 22 1000.8
20260904064036 73 181 3.0 8.0 0.00 0.00 0.00 21 1000.7
20260904063531 73 184 4.0 11.0 0.00 0.00 0.00 23 1000.7
20260904063030 73 182 4.0 9.0 0.00 0.00 0.00 24 1000.5
20260904062530 74 148 4.0 9.0 0.00 0.00 0.00 24 1000.6
20260904062032 74 153 3.0 10.0 0.00 0.00 0.00 20 1000.6
20260904061533 74 174 6.0 15.0 0.00 0.00 0.00 20 1000.5
20260904061031 74 175 5.0 15.0 0.00 0.00 0.00 20 1000.5
20260904060526 74 133 3.0 8.0 0.00 0.00 0.00 21 1000.4
20260904060024 74 152 2.0 7.0 0.00 0.00 0.00 20 1000.5
20260904055524 74 165 2.0 8.0 0.00 0.00 0.00 21 1000.4
20260904055024 74 124 2.0 7.0 0.00 0.00 0.00 22 1000.2
20260904054531 75 164 2.0 9.0 0.00 0.00 0.00 22 1000.3
20260904054025 75 188 4.0 9.0 0.00 0.00 0.00 21 1000.2
20260904053528 75 182 4.0 10.0 0.00 0.00 0.00 21 1000.2
20260904053024 75 180 3.0 10.0 0.00 0.00 0.00 22 1000.2
20260904052524 75 143 3.0 7.0 0.00 0.00 0.00 22 1000.2
20260904052024 76 153 2.0 9.0 0.00 0.00 0.00 19 1000.1
20260904051523 77 140 4.0 9.0 0.00 0.00 0.00 17 1000.1
20260904051022 76 173 3.0 7.0 0.00 0.00 0.00 18 1000.1
20260904050523 76 156 3.0 10.0 0.00 0.00 0.00 18 1000.1
20260904050023 76 184 4.0 10.0 0.00 0.00 0.00 18 1000.1
20260904045525 77 142 2.0 9.0 0.00 0.00 0.00 18 1000.1
20260904045023 77 190 4.0 9.0 0.00 0.00 0.00 17 1000.2
20260904044531 76 178 4.0 8.0 0.00 0.00 0.00 18 1000.2
20260904044023 76 180 4.0 8.0 0.00 0.00 0.00 18 1000.3
20260904043523 75 174 3.0 9.0 0.00 0.00 0.00 19 1000.2
20260904043022 72 167 3.0 6.0 0.00 0.00 0.00 22 1000.2
20260904042522 69 161 1.0 4.0 0.00 0.00 0.00 26 1000.1
20260904042023 69 134 1.0 3.0 0.00 0.00 0.00 28 1000.2
20260904041521 70 109 2.0 3.0 0.00 0.00 0.00 26 1000.1
20260904041021 70 108 1.0 4.0 0.00 0.00 0.00 25 1000.2
20260904040526 70 103 2.0 4.0 0.00 0.00 0.00 25 1000.0
20260904040021 71 107 1.0 4.0 0.00 0.00 0.00 25 1000.1
20260904035519 71 116 1.0 4.0 0.00 0.00 0.00 23 1000.0
20260904035019 72 123 2.0 4.0 0.00 0.00 0.00 22 1000.0
20260904034540 72 111 1.0 3.0 0.00 0.00 0.00 24 1000.0
20260904034020 72 111 2.0 4.0 0.00 0.00 0.00 23 999.9
20260904033519 73 129 2.0 4.0 0.00 0.00 0.00 23 999.9
20260904033019 73 155 1.0 3.0 0.00 0.00 0.00 22 1000.0
20260904032519 74 172 0.0 3.0 0.00 0.00 0.00 21 999.8
20260904032019 74 169 0.0 2.0 0.00 0.00 0.00 21 1000.0
20260904031521 76 177 0.0 3.0 0.00 0.00 0.00 20 1000.0
20260904031019 77 175 1.0 4.0 0.00 0.00 0.00 20 999.9
20260904030519 78 182 1.0 4.0 0.00 0.00 0.00 18 1000.0
20260904030019 78 179 1.0 3.0 0.00 0.00 0.00 17 1000.0
20260904025519 78 175 1.0 3.0 0.00 0.00 0.00 18 1000.0
20260904025018 79 175 1.0 4.0 0.00 0.00 0.00 17 1000.0
20260904024518 79 175 2.0 4.0 0.00 0.00 0.00 16 1000.0
20260904024018 79 183 2.0 4.0 0.00 0.00 0.00 17 999.9
20260904023518 80 182 1.0 4.0 0.00 0.00 0.00 16 999.9
20260904023018 80 183 2.0 5.0 0.00 0.00 0.00 16 999.9
20260904022520 80 178 2.0 6.0 0.00 0.00 0.00 16 999.8
20260904022021 81 173 2.0 8.0 0.00 0.00 0.00 16 999.8
20260904021517 81 185 4.0 8.0 0.00 0.00 0.00 15 999.9
20260904021017 81 173 2.0 9.0 0.00 0.00 0.00 15 999.9
20260904020517 82 177 3.0 9.0 0.00 0.00 0.00 14 999.7
20260904020016 82 167 4.0 8.0 0.00 0.00 0.00 14 999.8
20260904015517 82 168 3.0 8.0 0.00 0.00 0.00 15 999.9
20260904015015 83 169 4.0 10.0 0.00 0.00 0.00 14 999.9
20260904014514 83 184 4.0 10.0 0.00 0.00 0.00 14 999.9
20260904014013 83 163 5.0 11.0 0.00 0.00 0.00 14 1000.0
20260904013514 83 153 3.0 10.0 0.00 0.00 0.00 14 1000.1
20260904013013 83 134 5.0 10.0 0.00 0.00 0.00 14 1000.1
20260904012513 84 208 3.0 10.0 0.00 0.00 0.00 15 1000.1
20260904012116 84 181 6.0 10.0 0.00 0.00 0.00 13 1000.2
20260904011542 84 188 7.0 10.0 0.00 0.00 0.00 14 1000.2
20260904011011 84 195 3.0 10.0 0.00 0.00 0.00 14 1000.3
20260904010512 84 173 5.0 12.0 0.00 0.00 0.00 13 1000.2
20260904010011 84 180 4.0 9.0 0.00 0.00 0.00 14 1000.4
20260904005515 84 179 4.0 12.0 0.00 0.00 0.00 14 1000.4
20260904005010 84 183 6.0 12.0 0.00 0.00 0.00 13 1000.4
20260904004510 84 178 6.0 10.0 0.00 0.00 0.00 14 1000.5
20260904004010 84 169 5.0 9.0 0.00 0.00 0.00 14 1000.5
20260904003511 84 186 4.0 8.0 0.00 0.00 0.00 15 1000.4
20260904003013 84 178 4.0 10.0 0.00 0.00 0.00 14 1000.4
20260904002509 84 182 6.0 10.0 0.00 0.00 0.00 14 1000.4